Regional Weather Roundup
Issued by NWS Goodland, KS

Home | Current Version | Previous Version | Graphics & Text | Print | Product List | Glossary On
Versions: 1 2 3 4 5 6 7 8 9 10 11 12 13 14 15 16 17 18 19 20 21 22 23 24 25 26 27 28 29 30 31 32 33 34 35 36 37 38 39 40 41 42 43 44 45 46 47 48 49 50
000
ASUS43 KGLD 251708
RWRGLD

GOODLAND FORECAST AREA HOURLY WEATHER ROUNDUP
NATIONAL WEATHER SERVICE GOODLAND KS
1100 AM MDT TUE APR 25 2017

...OFFICIAL OBSERVATIONS...

CITY           SKY/WX    TMP DP  RH WIND       PRES   REMARKS
GOODLAND KS    CLOUDY    53  43  68 NE9       29.56S
HILL CITY KS   CLOUDY    55  44  66 N17       29.54R
IMPERIAL NEB   CLOUDY    47  43  86 N13       29.59R
MCCOOK NEB     CLOUDY    48  44  86 NE9       29.57R
AKRON CO       MOSUNNY   53  39  59 NE9       29.59S
BURLINGTON CO  NOT AVBL
LIMON CO       MOSUNNY   55  35  47 NE8       29.59S
$$

...UNOFFICIAL OBSERVATIONS...

CITY           SKY/WX    TMP DP  RH WIND       PRES   REMARKS
LENORA KS        N/A     53  32  45 MISG        N/A
NORTON KS      CLOUDY    52  43  71 N15       29.53R
SHARON SPRINGS   N/A     54  44  69 NE12G20     N/A
TRENTON NEB      N/A     47  32  56 CALM        N/A
KIT CARSON CO    N/A     53  42  66 MISG        N/A
YUMA CO        PTSUNNY   50  41  71 N9        29.59S
$$




USA.gov is the U.S. government's official web portal to all federal, state and local government web resources and services.